Home   Weather   Bünde   Past weeks

Flag for Germany Past Weather in Bünde, North Rhine-Westphalia, Germany — Yesterday and Last 2 Weeks

Now
41 °F

Quite cool.


Feels Like: 35 °F
Forecast: 36 / 54 °F
Wind: 9 mph from West

Location: Bueckeburg

Current Time: Apr 23, 2017 at 2:08:34 pm

Latest Report: Apr 23, 2017 at 1:20 pm


Visibility: N/A

Pressure: 30.21 "Hg

Humidity: 87%

Dew Point: 37 °F

Location of BündeLocation

Past Weather in Bünde — Graph

°F

Bünde Temperature Yesterday

Maximum temperature yesterday: 50 °F (at 12:20 am)
Minimum temperature yesterday: 41 °F (at 6:20 am)
Average temperature yesterday: 45 °F

High & Low Weather Summary for the Past Weeks

 TemperatureHumidityPressure
High70 °F (Apr 9, 6:20 pm)100% (Apr 9, 6:20 am)30.63 "Hg (Apr 9, 6:20 am)
Low27 °F (Apr 19, 6:20 am)35% (Apr 20, 5:20 pm)29.80 "Hg (Apr 15, 7:20 am)
Average46 °F71%30.18 "Hg
* Reported Apr 8 12:20 pm — Apr 23 12:20 pm, Bünde, Weather by CustomWeather, © 2017

Note: Actual official high and low records may vary slightly from our data, if they occured in-between our weather recording intervals... More about our weather records

Advertising

Bünde Weather History for the Previous 24 Hours

Scroll right to see more
 ConditionsComfort  
Time TempWeatherWind HumidityBarometerVisibility
12:20 pm
Sun, Apr 23
41 °FQuite cool.14 mph81%30.21 "Hg6 mi
11:20 am45 °FQuite cool.17 mph61%30.21 "HgN/A
10:20 am43 °FQuite cool.18 mph66%30.21 "HgN/A
9:20 am43 °FQuite cool.15 mph76%30.18 "HgN/A
8:20 am41 °FQuite cool.13 mph81%30.21 "HgN/A
7:20 am39 °FChilly.12 mph87%30.18 "HgN/A
6:20 am39 °FChilly.13 mph87%30.18 "HgN/A
5:20 am39 °FChilly.9 mph87%30.18 "HgN/A
4:20 am39 °FChilly.10 mph87%30.18 "HgN/A
3:20 am39 °FChilly.8 mph87%30.18 "HgN/A
2:20 am39 °FChilly.12 mph87%30.18 "HgN/A
1:20 am39 °FChilly.7 mph87%30.18 "HgN/A
12:20 am39 °FChilly.6 mph87%30.18 "HgN/A
11:20 pm
Sat, Apr 22
41 °FQuite cool.13 mph81%30.18 "HgN/A
10:20 pm41 °FQuite cool.10 mph81%30.18 "HgN/A
9:20 pm43 °FQuite cool.12 mph76%30.18 "HgN/A
8:20 pm45 °FQuite cool.13 mph61%30.15 "Hg6 mi
7:20 pm46 °FCool.16 mph62%30.15 "HgN/A
6:20 pm46 °FCool.14 mph62%30.15 "HgN/A
5:20 pm48 °FCool.21 mph50%30.15 "HgN/A
4:20 pm48 °FCool.20 mph54%30.15 "HgN/A
3:20 pm50 °FCool.17 mph54%30.15 "HgN/A
2:20 pm48 °FCool.21 mph54%30.18 "HgN/A
Weather by CustomWeather, © 2017

See weather overviewHow to use our weather pages